Home   Weather   Eferding   Past weeks

Flag for Austria Past Weather in Eferding, Upper Austria, Austria — Yesterday and Last 2 Weeks

Now
27 °F

Low clouds.


Feels Like: N/A
Forecast: 27 / 43 °F
Wind: N/A

Location: Linz / Hoersching-Flughafen

Current Time: Dec 8, 2016 at 3:32:32 pm

Latest Report: Dec 8, 2016 at 2:00 pm


Visibility: 2 mi

Pressure: 30.63 "Hg

Humidity: 97%

Dew Point: 27 °F

Location of EferdingLocation

Past Weather in Eferding — Graph

°F

Eferding Temperature Yesterday

Maximum temperature yesterday: 28 °F (at 12:00 am)
Minimum temperature yesterday: 26 °F (at 8:00 am)
Average temperature yesterday: 27 °F

High & Low Weather Summary for the Past Weeks

 TemperatureHumidityPressure
High46 °F (Nov 25, 1:00 pm)100% (Dec 3, 1:00 am)30.71 "Hg (Dec 3, 1:00 am)
Low20 °F (Nov 30, 8:00 am)45% (Nov 28, 1:00 pm)29.99 "Hg (Nov 27, 1:00 pm)
Average34 °F85%30.33 "Hg
* Reported Nov 23 2:00 pm — Dec 8 2:00 pm, Eferding, Weather by CustomWeather, © 2016

Note: Actual official high and low records may vary slightly from our data, if they occured in-between our weather recording intervals... More about our weather records

Advertising

Eferding Weather History for the Previous 24 Hours

Scroll right to see more
 ConditionsComfort  
Time TempWeatherWind HumidityBarometerVisibility
2:00 pm
Thu, Dec 8
27 °FLow clouds.N/A97%30.63 "Hg2 mi
1:00 pm27 °FLow clouds.N/A96%30.64 "Hg2 mi
12:00 pm27 °FLow clouds.N/A97%30.66 "Hg1 mi
11:00 am26 °FLow clouds.N/A97%30.68 "Hg1 mi
10:00 am26 °FLow clouds.N/A98%30.69 "Hg1 mi
9:00 am26 °FLow clouds.N/A98%30.68 "Hg1 mi
8:00 am26 °FLow clouds.N/A97%30.68 "Hg1 mi
7:00 am26 °FLow clouds.N/A98%30.68 "Hg1 mi
6:00 am26 °FLow clouds.N/A98%30.68 "Hg2 mi
5:00 am26 °FLow clouds.N/A98%30.68 "Hg2 mi
4:00 amN/APassing clouds.13 mphN/AN/A10 mi
12:00 am27 °FLow clouds.N/A98%30.69 "Hg2 mi
11:00 pm
Wed, Dec 7
28 °FLow clouds.N/A96%30.69 "Hg2 mi
10:00 pm28 °FLow clouds.N/A98%30.68 "Hg2 mi
9:00 pm28 °FLow clouds.N/A99%30.68 "Hg1 mi
8:00 pm28 °FIcy mix. Low clouds.N/A99%30.67 "Hg1 mi
7:00 pm28 °FLow clouds.N/A98%30.67 "Hg1 mi
6:00 pm28 °FLow clouds.N/A98%30.68 "Hg1 mi
5:00 pm28 °FLow clouds.N/A97%30.67 "Hg1 mi
4:00 pm28 °FLow clouds.N/A97%30.66 "Hg1 mi
3:00 pm28 °FLow clouds.N/A97%30.66 "Hg1 mi
Weather by CustomWeather, © 2016

See weather overviewHow to use our weather pages